Find Starlink 2655

NORAD ID: 48449 Int'l Des: 2021-040 Owner: SPXS Country: US Constellation: starlink operational
LEOCIRCULAR

現在のビュー

3D地球を読み込み中...

About Starlink 2655

Starlink 2655 (NORAD 48449) is a starlink constellation satellite (v1.0) launched May 9, 2021 by SPXS of US. It operates in LEO, CIRCULAR orbit with a mass of 260.00 kg.

Starlink 2655について

説明を読み込み中...

次回通過

Passes for default location (London). Set your location on the main map for personalized predictions.

高度履歴

Loading altitude history...

軌道要素

1 48449U 21040X 26170.97542337 .00001181 00000-0 49817-4 0 9996
2 48449 53.1601 62.2766 0001071 85.0933 275.0190 15.31707344282352
Epoch: Jun 19, 2026 • Age: 24 hours

現在のステータス

高度 478.2 km
速度 7.63 km/s
衛星直下点 -24.64°S, 8.95°W
打ち上げ日 May 9, 2021
運用期間 5.1 years
タイプ internet

技術仕様

分類 Payload
質量 260.00 kg
乾燥質量 248.00 kg
総質量 260.00 kg
長さ 0.20 m
直径 2.80 m
スパン 9.00 m
形状 Box + pan
製造者 SPXS
バスタイプ Starlink
フェーズステータス In Orbit
所有者/国 SPXS/US

Most Searched